軌道要素
Epoch 2003 Oct. 8.0 TT = JDT 2452920.5
T 2003 Sept. 25.94027 TT Muraoka
q 1.5903670 (2000.0) P Q
n 0.15392440 Peri. 41.75124 -0.99858605 -0.03594575
a 3.4482421 Node 136.14140 +0.01947027 -0.93284627
e 0.5387890 Incl. 3.24027 +0.04946527 -0.35847698
P 6.40
From 760 observations 1978-1997, mean residual 0".80. Nongravitational
parameters A1 = +0.11 +/- 0.01, A2 = +0.0209 +/- 0.0002.
|